Weather in Londrina

Brazil     23°17′51″S   51°09′36″W
temp.,
°C
wind,
m/s
gust,
m/s
humid.,
%
clouds,
%
prec.,
mm/h
press.,
hPa
HPBL,
m
18 april, sun
sun1800:00+17sse229437 0.6 101319
03:00+17se22932 0.7 101214
06:00+16se22940 0.0 101322
09:00+19ese35840 0.0 1015333
12:00+25se22610 0.0 1014913
15:00+27ssw234819 0.1 10111807
18:00+23ssw226489 0.0 101122
21:00+21s376692 0.0 1013179
19 april, mon
mon1900:00+18se311810 0.0 1014281
03:00+16ese38920 0.0 1014216
06:00+15ese39961 0.0 1015242
09:00+19ese58740 0.0 1017484
12:00+25ese44520 0.0 10151203
15:00+26sse234413 0.0 10131896
18:00+22sw225621 0.0 101313
21:00+20sse225914 0.0 101528
20 april, tue
tue2000:00+18ese37710 0.0 1016141
03:00+15ese310880 0.0 1016292
06:00+14ese310951 0.0 1016260
09:00+18ese48730 0.0 1018432
12:00+25ese44460 0.0 10161192
15:00+27se23370 0.0 10131942
18:00+22ssw22520 0.0 101312
21:00+19sse225738 0.0 101514
21 april, wed
wed2100:00+16se37730 0.0 1017137
03:00+15ese37880 0.0 1016166
06:00+13ese310940 0.0 1016255
09:00+18ese59730 0.0 1018500
12:00+24e44450 0.0 10161126
15:00+26sse22350 0.0 10131841
18:00+21ssw22500 0.0 101314
21:00+18s22580 0.0 101513
22 april, thu
thu2200:00+15se23710 0.0 101642
03:00+14se23840 0.0 101549
06:00+13se24910 0.0 101564
09:00+18e36670 0.0 1016313
12:00+25ne22400 0.0 10151119
15:00+27s23333 0.0 10121492
18:00+21se33489 0.0 101228
21:00+19se22505 0.0 101311